Other Public Products
Issued by NWS Grand Forks, ND

Home | Current Version | Previous Version | Graphics & Text | Print | Product List | Glossary On
Versions: 1 2 3 4 5 6 7 8 9 10 11 12 13 14 15 16 17 18 19 20 21 22 23 24 25 26 27 28 29 30 31 32 33 34 35 36 37 38 39 40 41 42 43 44 45 46 47 48 49 50
000
FPUS83 KFGF 190610
OPUFGF
PRAIRIE TO PINES WEATHER ROUNDUP
NATIONAL WEATHER SERVICE EASTERN NORTH DAKOTA/GRAND FORKS ND
1200 AM CST FRI DEC 19 2014

 **SATELLITE DATA USED TO AUGMENT SKY COVER AT AUTOMATED STATIONS**
 *****  WEATHER ACROSS EASTERN NORTH DAKOTA  *****

CITY           SKY/WX    TMP DP  RH WIND       PRES   REMARKS
GRAND FORKS    CLOUDY    20  16  84 S12       30.14F WCI   8
6HR MIN TEMP:  19; 6HR MAX TEMP:  20;

GRAND FORKS AF CLOUDY    20  20  99 S13       30.13F WCI   7
GRAND CITY NWS NOT AVBL
BUXTON         NOT AVBL
DEVILS LAKE    CLOUDY    21  16  79 S12       30.02S WCI   9
6HR MIN TEMP:  19; 6HR MAX TEMP:  21;

FARGO          LGT SNOW  22  17  81 SE13      30.16F WCI  10
6HR MIN TEMP:  20; 6HR MAX TEMP:  22; 6HR PCP: TRACE;

WAHPETON ARPT  CLOUDY    21  18  86 S8        30.18F WCI  12
$$

 *****  WEATHER ACROSS CENTRAL AND WESTERN NORTH DAKOTA  *****

CITY           SKY/WX    TMP DP  RH WIND       PRES   REMARKS
JAMESTOWN      CLOUDY    24  22  91 S12       30.05F FOG     WCI  13
6HR MIN TEMP:  22; 6HR MAX TEMP:  24; 6HR PCP: TRACE;

BISMARCK       CLOUDY    27  25  92 S5        30.01R WCI  22
6HR MIN TEMP:  26; 6HR MAX TEMP:  28;

MINOT          CLOUDY    25  22  88 E3        29.95F FOG
6HR MIN TEMP:  23; 6HR MAX TEMP:  25;

MINOT AFB      CLOUDY    23  23 100 SE6       29.95F FOG     WCI  16
GARRISON         N/A     30  28  92 S5        29.94F
6HR MIN TEMP:  26; 6HR MAX TEMP:  30;

WILLISTON      FOG       28  26  92 S3        29.93R VSB 1/2
6HR MIN TEMP:  28; 6HR MAX TEMP:  29;

DICKINSON      CLEAR     27  21  78 SW6       29.91S WCI  20
6HR MIN TEMP:  19; 6HR MAX TEMP:  28;

HETTINGER      MOCLDY    24  21  88 CALM      29.96S
6HR MIN TEMP:  20; 6HR MAX TEMP:  28;

$$

 *****  OTHER OBSERVATIONS NORTHEAST NORTH DAKOTA  *****

CITY           SKY/WX    TMP DP  RH WIND       PRES   REMARKS
WALHALLA         N/A     19  19 100 SE12      30.10F WCI   7
LANGDON        CLOUDY    21  19  93 S14       30.03S FOG     WCI   8
CAVALIER       CLOUDY    19  18  93 S10       30.11F FOG     WCI   8
GRAFTON        NOT AVBL
CANDO          CLOUDY    23  23 100 S9        30.02S FOG     WCI  13
FORT TOTTEN      N/A     22  21  96 S7        29.95  WCI  13
ROLLA          CLOUDY    19  19 100 S7        29.99S FOG     WCI  10
RUGBY          MOCLDY    23  23 100 SE5       30.00S FOG     WCI  17
 ***** THE ABOVE OBSERVATIONS ARE NON NWS ARE NOT QUALITY
        CONTROLLED AND MAY MIS-REPORT RAIN FOR SNOW...
$$

 *****  OTHER OBSERVATIONS SOUTHEAST NORTH DAKOTA *****

CITY           SKY/WX    TMP DP  RH WIND       PRES   REMARKS
COOPERSTOWN    NOT AVBL
VALLEY CITY    CLOUDY    23  23 100 S10       30.08  FOG     WCI  12
OAKES            N/A     25  25 100 S8        30.10F FOG     WCI  16
GWINNER        CLOUDY    27  27 100 MISG      30.13S
BUFFALO        NOT AVBL
WYNDMERE         N/A     21  19  93 S8          N/A  WCI  12
 ***** THE ABOVE OBSERVATIONS ARE NON NWS ARE NOT QUALITY
       CONTROLLED AND MAY MIS-REPORT RAIN FOR SNOW...
$$

  *****  WEATHER ACROSS NORTHERN MINNESOTA  *****

CITY           SKY/WX    TMP DP  RH WIND       PRES   REMARKS
FLAG ISLAND    CLOUDY    18  16  93 S10       30.17S WCI   6
WARROAD        CLOUDY    18  14  86 S9        30.17S WCI   6
ROSEAU         CLOUDY    19  14  79 S9        30.16S WCI   9
HALLOCK        CLOUDY    21  18  86 S14       30.14S FOG     WCI   8
THF RVR FALLS  CLOUDY    21  16  79 S10       30.16S WCI  10
6HR MIN TEMP:  19; 6HR MAX TEMP:  21;

HALSTAD          N/A     21  16  80 S14         N/A  WCI   8
FOSSTON        CLOUDY    18  16  93 SE6       30.17S WCI   9
BAUDETTE       CLOUDY    19  14  81 S7        30.18S WCI  10
6HR MIN TEMP:  18; 6HR MAX TEMP:  19;

WASKISH        CLOUDY    19  16  86 CALM      30.19F
CROOKSTON      PTCLDY    21  19  93 S10       30.17F FOG     WCI  10
$$
  *****  WEATHER ACROSS CENTRAL AND WEST MINNESOTA  *****

CITY           SKY/WX    TMP DP  RH WIND       PRES   REMARKS
BEMIDJI        CLOUDY    18  15  88 S8        30.17S WCI   8
PARK RAPIDS    CLOUDY    19  15  84 S9        30.18S WCI   8
6HR MIN TEMP:  17; 6HR MAX TEMP:  19;

WADENA         CLOUDY    18  16  93 NW9       30.18F WCI   6
DETROIT LAKES  CLOUDY    21  18  86 S10       30.17S WCI  10
MOORHEAD       LGT SNOW  21  21 100 S14G20    30.18S WCI   8
FERGUS FALLS   FLURRIES  19  16  86 S12       30.21F WCI   7
ELBOW LAKE     CLOUDY    20  17  90 SE9       30.18F WCI   9
6HR MIN TEMP:  19; 6HR MAX TEMP:  20;

MORRIS MN      PTCLDY    21  19  93 SE8       30.19S WCI  12
STAPLES        CLOUDY    18  14  86 SE7       30.20F WCI   8
WHEATON        LGT SNOW  19  18  93 SE10      30.20F WCI   8
$$
  *****  WEATHER ELSEWHERE ACROSS MINNESOTA  *****

CITY           SKY/WX    TMP DP  RH WIND       PRES   REMARKS
DULUTH         CLOUDY    22  18  85 S6        30.21F WCI  14
6HR MIN TEMP:  22; 6HR MAX TEMP:  24; 6HR PCP: TRACE;

INTRNTL FALLS  CLOUDY    21  17  84 CALM      30.20S
6HR MIN TEMP:  19; 6HR MAX TEMP:  21;

ELY            CLOUDY    23  19  86 S8        30.21S WCI  14
CLOQUET        CLOUDY    19  18  93 S6        30.22S WCI  11
BRAINERD       CLOUDY    19  15  84 S3        30.23S
6HR MIN TEMP:  18; 6HR MAX TEMP:  19;

HIBBING        CLOUDY    23  17  78 S6        30.20S WCI  16
6HR MIN TEMP:  22; 6HR MAX TEMP:  23;

ALEXANDRIA     CLOUDY    20  15  81 SE8       30.19F WCI  10
6HR MIN TEMP:  19; 6HR MAX TEMP:  20;

SAINT CLOUD    CLOUDY    22  15  75 SE6       30.25S WCI  14
6HR MIN TEMP:  20; 6HR MAX TEMP:  22;

MINNEAPOLIS    CLOUDY    20  15  81 SE8       30.28S WCI  10
6HR MIN TEMP:  20; 6HR MAX TEMP:  22;

$$

  *****  WEATHER ACROSS SOUTH DAKOTA  *****

CITY           SKY/WX    TMP DP  RH WIND       PRES   REMARKS
SIOUX FALLS    CLOUDY    27  24  89 S8        30.18R WCI  19
6HR MIN TEMP:  27; 6HR MAX TEMP:  27;

BROOKINGS      NOT AVBL
WATERTOWN      CLOUDY    25  23  92 S7        30.13R FOG     WCI  17
6HR MIN TEMP:  23; 6HR MAX TEMP:  25;

HURON          CLOUDY    27  24  89 S7        30.14S FOG     WCI  19
6HR MIN TEMP:  26; 6HR MAX TEMP:  27;

SISSETON         N/A     22  21  96 S12       30.15F WCI  10
ABERDEEN       CLOUDY    27  24  89 S9        30.12S WCI  18
6HR MIN TEMP:  25; 6HR MAX TEMP:  27;

MITCHELL       CLOUDY    29  26  89 S8        30.17R WCI  21
PIERRE         FOG       15  13  91 SE3       30.06S VSB 1
6HR MIN TEMP:  15; 6HR MAX TEMP:  28;

MOBRIDGE       CLEAR     22  20  92 SE7       30.00S WCI  13
RAPID CITY     CLEAR     26  18  71 W6        30.01S WCI  19
6HR MIN TEMP:  20; 6HR MAX TEMP:  32;

$$

  *****  SOME WEATHER IN NEARBY STATES *****

CITY           SKY/WX    TMP DP  RH WIND       PRES   REMARKS
GLASGOW MT     MOCLDY    22  19  89 CALM      29.91R
6HR MIN TEMP:  21; 6HR MAX TEMP:  26;

GREAT FALLS MT CLEAR     32  26  78 SW14      29.90S WCI  22
6HR MIN TEMP:  32; 6HR MAX TEMP:  37;

CHEYENNE WY    CLEAR     26  13  57 W9        30.07S WCI  17
6HR MIN TEMP:  26; 6HR MAX TEMP:  32;

SCOTTSBLUFF NE PTCLDY     9   6  88 N6        30.08S WCI  -1
6HR MIN TEMP:   6; 6HR MAX TEMP:  17;

OMAHA NE       CLOUDY    31  27  85 S8        30.27R WCI  23
6HR MIN TEMP:  31; 6HR MAX TEMP:  31;

DES MOINES IA  CLOUDY    28  23  81 SE3       30.28S
6HR MIN TEMP:  27; 6HR MAX TEMP:  29;

DAVENPORT IA   CLEAR     18  13  80 CALM      30.29F
6HR MIN TEMP:  18; 6HR MAX TEMP:  24;

CHICAGO IL     CLOUDY    27  21  78 NW8       30.26S WCI  19
6HR MIN TEMP:  27; 6HR MAX TEMP:  28;

EAU CLAIRE WI  CLOUDY    24  19  81 CALM      30.27S
6HR MIN TEMP:  23; 6HR MAX TEMP:  24;

LA CROSSE WI   CLOUDY    26  18  71 CALM      30.30R
6HR MIN TEMP:  26; 6HR MAX TEMP:  26;

$$

  *****  SOME NATIONAL WEATHER *****

CITY           SKY/WX    TMP DP  RH WIND       PRES   REMARKS
LA GUARDIA NY  CLOUDY    38  27  64 NW14      29.96F
6HR MIN TEMP:  38; 6HR MAX TEMP:  39;




USA.gov is the U.S. government's official web portal to all federal, state and local government web resources and services.